Fitchburg, MA

2:22 PM EDT on April 28, 2017 (GMT -0400)
Fitchburg Municipal

Weather History for KFIT - September, 2013

Change the Weather History Date:

Monday, September 2, 2013

  Actual Average (KORH) Record (KORH)
Temperature  
Mean Temperature 76 °F -  
Max Temperature 80 °F 74 °F 99 °F (1953)
Min Temperature 73 °F 55 °F 38 °F (1934)
Cooling Degree Days 12    
Growing Degree Days 26 (Base 50)    
Moisture  
Dew Point 72 °F    
Average Humidity 88    
Maximum Humidity 94    
Minimum Humidity 71    
Precipitation  
Precipitation 0.14 in - - ()
Sea Level Pressure  
Sea Level Pressure 29.80 in    
Wind  
Wind Speed 5 mph (SSE)    
Max Wind Speed 9 mph    
Max Gust Speed -    
Visibility 8 miles    
Events Rain    
Averages and records for this station are not official NWS values.
T = Trace of Precipitation, MM = Missing Value Source: NWS Daily Summary

Daily Weather History Graph

Daily Weather History Graph

Search for Another Location

Airport or City:

Trip Planner

Search our weather history database for the weather conditions in past years. The results will help you decide how hot, cold, wet, or windy it might be!

Date:

Astronomy

Sep. 02, 2013 Rise Set
Actual Time 6:13 AM EDT 7:19 PM EDT
Civil Twilight 5:44 AM EDT 7:48 PM EDT
Nautical Twilight 5:09 AM EDT 8:22 PM EDT
Astronomical Twilight 4:33 AM EDT 8:58 PM EDT
Moon 3:25 AM EDT (9/2) 5:32 PM EDT (9/2)
Length of Visible Light 14h 03m
Length of Day
13h 05m
Waning Crescent, 8% of the Moon is Illuminated
Sep 2
Waning Crescent
Sep 5
New
Sep 12
First Quarter
Sep 19
Full
Sep 26
Last Quarter

Hourly Weather History & Observations

Time (EDT) Temp. Heat Index Dew Point Humidity Pressure Visibility Wind Dir Wind Speed Gust Speed Precip Events Conditions
12:42 AM 73.4 °F - 71.6 °F 94% 29.87 in 9.0 mi SSE 5.8 mph - N/A   Overcast
12:52 AM 73.9 °F - 71.1 °F 91% 29.87 in 9.0 mi SE 4.6 mph - N/A   Overcast
1:52 AM 73.9 °F - 71.1 °F 91% 29.85 in 10.0 mi SE 6.9 mph - N/A   Overcast
2:48 AM 73.4 °F - 71.6 °F 94% 29.85 in 3.0 mi SSE 3.5 mph - N/A   Overcast
2:52 AM 73.0 °F - 71.1 °F 93% 29.84 in 3.0 mi South 4.6 mph - N/A   Overcast
3:14 AM 73.4 °F - 71.6 °F 94% 29.84 in 9.0 mi SE 5.8 mph - N/A   Overcast
3:52 AM 73.0 °F - 70.0 °F 90% 29.83 in 10.0 mi SSE 5.8 mph - N/A   Overcast
4:52 AM 73.0 °F - 70.0 °F 90% 29.82 in 10.0 mi SSE 8.1 mph - N/A   Overcast
5:17 AM 73.4 °F - 69.8 °F 88% 29.83 in 7.0 mi SSE 5.8 mph - N/A   Overcast
5:52 AM 73.0 °F - 71.1 °F 93% 29.84 in 4.0 mi SSE 3.5 mph - N/A   Overcast
6:52 AM 73.0 °F - 71.1 °F 93% 29.84 in 3.0 mi Calm Calm - N/A   Overcast
7:07 AM 73.4 °F - 71.6 °F 94% 29.84 in 1.8 mi Calm Calm - N/A   Overcast
7:31 AM 73.4 °F - 71.6 °F 94% 29.84 in 3.0 mi SE 4.6 mph - N/A   Overcast
7:52 AM 73.0 °F - 71.1 °F 93% 29.83 in 3.0 mi SSE 6.9 mph - 0.01 in Rain Light Rain
8:09 AM 73.4 °F - 71.6 °F 94% 29.83 in 8.0 mi SSE 9.2 mph - 0.00 in Rain Light Rain
8:37 AM 75.2 °F - 71.6 °F 89% 29.83 in 10.0 mi South 4.6 mph - 0.00 in   Mostly Cloudy
8:52 AM 75.9 °F - 70.0 °F 82% 29.82 in 10.0 mi Variable 3.5 mph - 0.00 in   Mostly Cloudy
9:52 AM 77.0 °F - 70.0 °F 79% 29.82 in 10.0 mi SSW 8.1 mph - 0.00 in Rain Light Rain
10:52 AM 80.1 °F 83.2 °F 70.0 °F 71% 29.82 in 10.0 mi SSW 6.9 mph - 0.00 in   Overcast
11:41 AM 73.4 °F - 71.6 °F 94% 29.82 in 1.8 mi SSE 6.9 mph - 0.06 in Rain Heavy Rain
11:47 AM 75.2 °F - 71.6 °F 89% 29.82 in 3.0 mi South 8.1 mph - 0.06 in Rain Light Rain
11:52 AM 75.0 °F - 73.0 °F 94% 29.82 in 10.0 mi SSE 6.9 mph - 0.06 in   Mostly Cloudy
12:37 PM 75.2 °F - 73.4 °F 94% 29.81 in 10.0 mi South 6.9 mph - 0.03 in Rain Light Rain
12:52 PM 77.0 °F - 73.0 °F 88% 29.80 in 10.0 mi South 5.8 mph - 0.03 in   Scattered Clouds
1:01 PM 75.2 °F - 73.4 °F 94% 29.81 in 10.0 mi South 4.6 mph - N/A   Scattered Clouds
1:09 PM 75.2 °F - 73.4 °F 94% 29.80 in 10.0 mi South 3.5 mph - N/A   Mostly Cloudy
1:15 PM 75.2 °F - 73.4 °F 94% 29.79 in 10.0 mi SSE 5.8 mph - N/A   Mostly Cloudy
1:29 PM 75.2 °F - 73.4 °F 94% 29.79 in 10.0 mi South 6.9 mph - 0.00 in Rain Light Rain
1:52 PM 75.9 °F - 72.0 °F 87% 29.77 in 10.0 mi South 3.5 mph - 0.03 in Rain Light Rain
2:52 PM 78.1 °F - 71.1 °F 79% 29.77 in 10.0 mi Variable 3.5 mph - 0.00 in   Scattered Clouds
3:05 PM 78.8 °F - 71.6 °F 78% 29.77 in 10.0 mi Calm Calm - N/A   Mostly Cloudy
3:18 PM 78.8 °F - 73.4 °F 83% 29.76 in 10.0 mi SSE 3.5 mph - N/A   Overcast
3:34 PM 78.8 °F - 73.4 °F 83% 29.76 in 10.0 mi South 4.6 mph - N/A   Mostly Cloudy
3:50 PM 78.8 °F - 73.4 °F 83% 29.75 in 10.0 mi SSE 3.5 mph - N/A   Mostly Cloudy
3:52 PM 78.1 °F - 73.0 °F 84% 29.75 in 10.0 mi SSE 3.5 mph - N/A   Mostly Cloudy
4:18 PM 78.8 °F - 73.4 °F 83% 29.76 in 10.0 mi SE 4.6 mph - N/A   Mostly Cloudy
4:52 PM 79.0 °F - 73.0 °F 82% 29.73 in 10.0 mi SSE 4.6 mph - N/A   Mostly Cloudy
5:04 PM 78.8 °F - 73.4 °F 83% 29.74 in 10.0 mi South 4.6 mph - N/A   Scattered Clouds
5:52 PM 79.0 °F - 71.1 °F 77% 29.73 in 10.0 mi SSW 3.5 mph - N/A   Partly Cloudy
6:52 PM 77.0 °F - 70.0 °F 79% 29.73 in 10.0 mi South 3.5 mph - N/A   Partly Cloudy
7:44 PM 75.2 °F - 69.8 °F 83% 29.75 in 10.0 mi SSE 4.6 mph - N/A   Mostly Cloudy
7:52 PM 75.0 °F - 70.0 °F 84% 29.74 in 10.0 mi Calm Calm - N/A   Mostly Cloudy
8:52 PM 73.9 °F - 71.1 °F 91% 29.75 in 10.0 mi SSW 3.5 mph - N/A   Overcast
9:52 PM 73.9 °F - 71.1 °F 91% 29.74 in 10.0 mi SE 4.6 mph - N/A   Scattered Clouds
10:52 PM 73.0 °F - 70.0 °F 90% 29.75 in 10.0 mi Calm Calm - N/A   Mostly Cloudy
11:52 PM 73.0 °F - 70.0 °F 90% 29.76 in 10.0 mi Calm Calm - 0.01 in Rain Light Rain